FW4125 Weather Reports


Display with metric or nautical units.
time (UTC)temp
F
wind
direction
speed
MPH
gust
MPH
rain 1hr
in
rain 24hr
in
rain mn
in
humidity
%
barometer
mb
20260901100024 80 231 0.0 2.0 0.00 0.03 0.01 54 873.6
20260901094521 80 231 0.0 3.0 0.00 0.03 0.01 55 873.6
20260901093022 80 230 1.0 4.0 0.00 0.03 0.01 56 873.6
20260901091521 79 234 1.0 4.0 0.00 0.03 0.01 57 873.6
20260901090028 77 187 0.0 2.0 0.00 0.03 0.01 59 873.6
20260901084523 76 186 0.0 2.0 0.00 0.03 0.01 61 873.6
20260901083022 75 185 0.0 0.0 0.00 0.03 0.01 63 873.6
20260901081526 74 105 0.0 0.0 0.01 0.03 0.01 64 873.6
20260901080031 74 105 0.0 0.0 0.01 0.03 0.01 63 873.6
20260901074526 75 105 0.0 0.0 0.01 0.03 0.01 63 873.6
20260901073032 75 105 0.0 0.0 0.01 0.03 0.01 62 873.6
20260901071536 75 104 0.0 1.0 0.00 0.02 0.00 62 873.6
20260901070036 75 100 0.0 0.0 0.00 0.02 0.00 62 873.6
20260901064540 75 100 0.0 0.0 0.00 0.02 0.00 61 873.6
20260901063044 75 100 0.0 0.0 0.00 0.02 0.00 60 873.6
20260901061547 75 100 0.0 0.0 0.00 0.02 0.00 59 873.6
20260901060048 75 100 0.0 0.0 0.00 0.02 0.00 58 873.6
20260901054550 76 100 0.0 0.0 0.00 0.02 0.00 57 873.6
20260901053111 76 100 0.0 0.0 0.01 0.03 0.02 54 873.6
20260901051556 78 100 0.0 0.0 0.01 0.03 0.02 51 873.6
20260901050056 80 100 0.0 0.0 0.01 0.03 0.02 48 873.6
20260901044606 82 100 0.0 1.0 0.01 0.03 0.02 46 873.6
20260901043124 82 100 0.0 0.0 0.00 0.03 0.01 43 873.6
20260901041506 83 100 0.0 0.0 0.00 0.03 0.01 41 873.6
20260901040010 83 100 0.0 0.0 0.00 0.03 0.01 40 873.6
20260901034512 84 100 0.0 0.0 0.00 0.03 0.01 39 873.6
20260901033015 84 100 0.0 0.0 0.00 0.03 0.01 38 873.6
20260901031530 85 100 0.0 0.0 0.00 0.03 0.01 37 873.6
20260901030020 86 100 0.0 0.0 0.00 0.03 0.01 37 873.6
20260901024524 86 100 0.0 0.0 0.00 0.03 0.01 36 873.6
20260901023028 87 100 0.0 0.0 0.00 0.03 0.01 36 873.6
20260901021525 88 114 0.0 0.0 0.00 0.03 0.01 34 873.6
20260901020032 89 118 0.0 0.0 0.00 0.03 0.01 32 873.6
20260901014530 90 104 0.0 0.0 0.00 0.03 0.01 31 873.6
20260901013041 91 100 0.0 0.0 0.00 0.03 0.01 30 873.6
20260901011539 92 100 0.0 0.0 0.00 0.03 0.01 29 873.6
20260901010043 94 100 0.0 0.0 0.00 0.03 0.01 27
20260901004544 95 100 0.0 0.0 0.00 0.03 0.01 26
20260901003051 96 100 0.0 0.0 0.00 0.03 0.01 24
20260901001604 97 100 0.0 1.0 0.00 0.03 0.01 23
20260901000050 98 100 0.0 1.0 0.00 0.03 0.01 22
20260831234556 98 100 0.0 2.0 0.00 0.03 0.01 22
20260831233054 99 124 0.0 3.0 0.00 0.03 0.01 21
20260831231555 99 168 1.0 4.0 0.00 0.03 0.01 21
20260831230057 100 107 2.0 4.0 0.00 0.03 0.01 20
20260831224559 100 171 1.0 4.0 0.00 0.03 0.01 21
20260831223101 101 104 0.0 3.0 0.00 0.03 0.01 19
20260831221503 101 172 0.0 4.0 0.00 0.03 0.01 19
20260831220004 101 177 0.0 5.0 0.00 0.03 0.01 20
20260831214506 102 150 2.0 8.0 0.00 0.03 0.01 19
20260831213011 102 169 3.0 8.0 0.00 0.03 0.01 19
20260831211511 102 185 1.0 6.0 0.00 0.03 0.01 20
20260831210007 102 167 1.0 4.0 0.00 0.03 0.01 21
20260831204506 101 237 3.0 7.0 0.00 0.03 0.01 21
20260831203003 101 108 1.0 5.0 0.00 0.03 0.01 22
20260831201504 101 187 2.0 7.0 0.00 0.03 0.01 20
20260831200004 100 241 2.0 6.0 0.00 0.03 0.01 22
20260831194506 100 169 0.0 6.0 0.00 0.03 0.01 25
20260831193009 99 90 1.0 4.0 0.00 0.03 0.01 23
20260831191514 100 225 1.0 4.0 0.00 0.03 0.01 23
20260831190005 99 215 2.0 5.0 0.00 0.03 0.01 25
20260831184512 99 139 1.0 4.0 0.00 0.03 0.01 24
20260831183014 99 146 1.0 5.0 0.00 0.03 0.01 25
20260831181513 98 236 1.0 5.0 0.00 0.03 0.01 27
20260831180014 97 235 1.0 5.0 0.00 0.03 0.01 30
20260831174513 96 227 1.0 4.0 0.00 0.03 0.01 30
20260831173016 94 109 1.0 5.0 0.00 0.03 0.01 32
20260831171515 93 231 1.0 3.0 0.00 0.03 0.01 34
20260831170015 91 253 1.0 4.0 0.00 0.03 0.01 35
20260831164511 90 237 0.0 4.0 0.00 0.03 0.01 36
20260831163008 89 238 1.0 5.0 0.00 0.03 0.01 37
20260831161506 88 236 1.0 4.0 0.00 0.03 0.01 39
20260831160008 87 232 2.0 6.0 0.00 0.03 0.01 40
20260831154507 85 224 2.0 5.0 0.00 0.03 0.01 42
20260831153004 84 249 1.0 4.0 0.00 0.03 0.01 44
20260831151503 83 256 0.0 4.0 0.00 0.03 0.01 48
20260831150003 82 233 1.0 5.0 0.00 0.03 0.01 49
20260831144506 81 279 0.0 4.0 0.00 0.03 0.01 53
20260831143010 80 266 1.0 5.0 0.00 0.03 0.01 56
20260831141510 79 227 1.0 5.0 0.00 0.03 0.01 57
20260831140013 79 221 1.0 4.0 0.00 0.03 0.01 59
20260831134513 78 225 0.0 3.0 0.00 0.03 0.01 61
20260831133021 77 236 0.0 2.0 0.00 0.03 0.01 61
20260831131510 77 236 0.0 3.0 0.00 0.03 0.01 62
20260831130015 77 246 0.0 0.0 0.00 0.03 0.01 61
20260831124534 77 246 0.0 0.0 0.00 0.03 0.01 60
20260831123017 77 246 0.0 0.0 0.00 0.03 0.01 59
20260831121520 78 246 0.0 0.0 0.01 0.03 0.01 58
20260831120024 78 247 0.0 0.0 0.01 0.03 0.01 57 1089.0
20260831114538 79 248 0.0 2.0 0.01 0.03 0.01 55 1089.0
20260831113028 80 248 0.0 2.0 0.01 0.03 0.01 54 1089.0
20260831111527 81 259 0.0 2.0 0.00 0.02 0.00 53 1089.0
20260831110022 81 259 0.0 2.0 0.00 0.02 0.00 52 1089.0
20260831104532 81 259 0.0 1.0 0.00 0.02 0.00 52 1089.0
20260831103023 81 261 0.0 3.0 0.00 0.02 0.00 51 1089.0
20260831101524 82 226 1.0 4.0 0.00 0.02 0.00 51 1089.0